Вернуться в каталог

COSMOS 970 DEB

АктивенLEO
NORAD 10576·DEBRIS·🇷🇺 Russia

Запущен Dec 21, 1977 с Baikonur Cosmodrome

Loading…

Ближайшие Пролёты (ближайшие 24 часа)

TLE

СвежийSource: Space-Track

Эпоха: Sep 14, 2026, 11:24 UTC

1 10576U 77121T   26257.47537025  .00000043  00000-0  13775-3 0  9995
2 10576  65.8399 330.5971 0131615 142.2133 232.2665 13.66887559427098

Отслеживайте COSMOS 970 DEB в реальном времени с AllMySat

Download on the App Store